Weather Roundup
Issued by NWS Corpus Christi, TX

Home | Current Version | Previous Version | Text Only | Print | Product List | Glossary On
Versions: 1 2 3 4 5 6 7 8 9 10 11 12 13 14 15 16 17 18 19 20 21 22 23 24 25 26 27 28 29 30 31 32 33 34 35 36 37 38 39 40 41 42 43 44 45 46 47 48 49 50
000
ASUS44 KCRP 222110
HRRCRP

SOUTH TEXAS REGIONAL WEATHER ROUNDUP
NATIONAL WEATHER SERVICE CORPUS CHRISTI TX
400 PM CDT SAT JUL 22 2017


TXZ229>244-222200-
...CORPUS CHRISTI AREA OBSERVATIONS...

CITY           SKY/WX    TMP DP  RH WIND       PRES   REMARKS
CORPUS CHRISTI PTSUNNY   94  75  54 SE18G31   29.90F HX 105
NAS CORPUS CHR PTSUNNY   92  77  61 S24       29.91F HX 105
ROCKPORT       PTSUNNY   91  76  61 S12G23    29.92F HX 103
KINGSVILLE NAS MOSUNNY   98  77  50 SE22G30   29.88F HX 113
ALICE          PTSUNNY   97  72  44 SE18G29   29.86F HX 105
ORANGE GROVE   PTSUNNY   33 N/A N/A S12G21    29.88F WCI  24
FALFURRIAS     MOSUNNY   99  65  33 SE14G21   29.87F HX 102
$$

...VICTORIA AREA OBSERVATIONS...

CITY           SKY/WX    TMP DP  RH WIND       PRES   REMARKS
VICTORIA       MOSUNNY   96  68  39 S13G21    29.90F HX 101
BEEVILLE       PTSUNNY   97  74  47 SE17      29.89F HX 108
PLEASANTON     MOSUNNY  103  61  24 SE8       29.88F HX 104
SAN ANTONIO    PTSUNNY   98  64  32 S8        29.90F HX 100
$$

...LAREDO AREA OBSERVATIONS...

CITY           SKY/WX    TMP DP  RH WIND       PRES   REMARKS
LAREDO         SUNNY    103  63  27 SE15      29.89F HX 105
COTULLA        SUNNY    103  57  21 MISG      29.86F HX 102
DEL RIO        MOSUNNY   99  65  32 E14G20    29.85F HX 102
MCALLEN        MOSUNNY  101  71  38 SE25G32   29.86F HX 109
HEBBRONVILLE   SUNNY     99  59  26 S16       29.88F HX  99
$$

...OTHER TEXAS OBSERVATIONS...

CITY           SKY/WX    TMP DP  RH WIND       PRES   REMARKS
BROWNSVILLE    MOSUNNY   91  75  59 S22G29    29.91F HX 101
HOUSTON        PTSUNNY   94  76  55 SE13      29.91F HX 106
COL. STATION   SUNNY     97  68  38 S10       29.89F HX 102
AUSTIN         PTSUNNY   98  65  33 S7G16     29.88F HX 101
WACO           SUNNY    100  68  35 S8        29.89F HX 105
FORT WORTH     MOSUNNY   99  70  38 S14       29.86F HX 106
WICHITA FALLS  MOSUNNY  102  64  28 SE8       29.84F HX 105
LUBBOCK        PTSUNNY   95  58  28 S9G18     29.98F HX  94
EL PASO        PTSUNNY   91  60  35 VRB3      30.00F HX  90
$$

...MARINE OBSERVATIONS...

STATION/POSITION TIME  SKY/WX   TEMP    WIND        PRES    VSBY  WAVE   SWELL
                                AIR SEA DIR/SP/G                  HT/PER HT/PER
                 (UTC)          (F)     (DEG/KT/KT) (MB)    (MI)  (FT/S) (FT/S)
PORT ARANSAS     2000            85 88  140/ 18/ 21 1013.9F
BUOY 90 E PORT A 1950            85 86  180/ 10/ 12 1014.7          2/ 5   2/ 6
BUOY 45 SE BAFFI 1950            85     160/ 16/ 19 1013.3          3/ 5
BUOY 200 E PT IS 2050            86 87  210/  8/ 12 1015.5F         2/ 4   2/ 4
BUOY 15 E GALVES 1950            83 87  180/ 14/ 16 1014.8          2/ 4
$$



USA.gov is the U.S. government's official web portal to all federal, state and local government web resources and services.